[[{"header":{"parameterUnit":"m.s-1","parameterCategory":2,"la1":30.2991,"la2":30.254,"lo1":-89.0895,"lo2":-89.0444,"dy":0.0017,"dx":0.0017,"nx":28,"ny":28,"refTime":"2024-07-17T09:00:00:Z","depth":"0","parameterNumber":2,"parameterNumberName":"U-component_of_CURRENTS"},"data":[0,0,0,0,0,0,0,0,0,0,0,0,0,0,0,0,0,0,0,0,0,0,0,0,0,0,0,0,0,0,0,0,0,0,0,0,0,0,0,0,0,0,0,0,0,0,0,0,0,0,0,0,0,0,0,0,0,0,0.213,0.213,0,0.2107,0.2107,0.2106,0.2039,0.2038,0.2037,0.2036,0.1985,0.1985,0.1984,0,0,0,0,0,0,0,0,0,0,0,0,0,0.21,0.2101,0.213,0.213,0.213,0.2107,0.2107,0.2106,0.2039,0.2038,0.2037,0.2035,0.1985,0.1985,0.1984,0,0,0,0,0,0,0,0,0,0,0,0,0,0.2095,0.2101,0.213,0.2097,0.2094,0.2108,0.2107,0.2106,0.204,0.2038,0.2036,0.2035,0.1985,0.1985,0.1984,0.2014,0,0,0.1983,0.1982,0,0,0,0,0,0,0,0,0.2095,0.2096,0.2102,0.2099,0.2096,0.2078,0.2078,0.2075,0.204,0.2056,0.2036,0.2034,0.2017,0.2014,0.2008,0.2011,0.2009,0.1982,0.1982,0.1982,0.1982,0,0,0,0,0,0,0,0.2096,0.2096,0.2117,0.2102,0.2099,0.2079,0.2076,0.2077,0.2042,0.2054,0.2051,0.2055,0.2015,0.2009,0.2006,0.2008,0.1982,0.1982,0.1982,0.1982,0.2082,0.2085,0,0,0,0,0,0,0.211,0.2097,0.2117,0.2116,0.2096,0.2081,0.2078,0.2082,0.2043,0.2037,0.2057,0.2052,0.201,0.2007,0.2004,0.2114,0.1982,0.1981,0.1981,0.2079,0.2083,0.2086,0,0,0,0,0,0,0.2109,0.2112,0.2118,0.2109,0.2109,0.2084,0.2089,0.2083,0.2083,0.2046,0.2037,0.2065,0.2009,0.2005,0.2039,0.2109,0.1981,0.1981,0.2076,0.208,0.2084,0.2285,0,0,0,0,0,0,0.2109,0.2112,0.2127,0.211,0.211,0.215,0.2091,0.2083,0.209,0.2084,0.2051,0.2043,0.2007,0.2041,0.2039,0.2106,0.198,0.2072,0.2078,0.2083,0.2275,0.2296,0.2314,0,0,0,0,0,0.2108,0.2137,0.2128,0.2131,0.213,0.2153,0.2151,0.2124,0.2093,0.2113,0.2099,0.2045,0.2074,0.2043,0.204,0.2109,0.2069,0.2076,0.2082,0.2266,0.2292,0.2313,0,0,0,0,0,0,0.2137,0.2134,0.2122,0.2151,0.2162,0.2143,0.2157,0.214,0.2143,0.2132,0.2088,0.2083,0.2126,0.2096,0.2063,0.2152,0.2061,0.2067,0.2201,0.2225,0.2244,0.2242,0.198,0,0,0,0,0,0.2153,0.2166,0.2169,0.2193,0.2201,0.2183,0.2189,0.2174,0.2171,0.2168,0.2151,0.2139,0.2152,0.2171,0.2156,0.2224,0.2251,0.2263,0.2283,0.23,0.2296,0.2434,0.2467,0.2108,0.2108,0.2108,0,0,0.2169,0.2171,0.2178,0.22,0.2197,0.2232,0.2181,0.22,0.2234,0.2166,0.2207,0.2194,0.2178,0.2242,0.2261,0.2232,0.2425,0.2308,0.2323,0.231,0.2445,0.248,0.2512,0.2112,0.2112,0.2111,0,0,0.2217,0.2214,0.2245,0.2263,0.2278,0.2273,0.2288,0.2288,0.2293,0.2343,0.2301,0.2347,0.2354,0.2379,0.2389,0.2513,0.2506,0.2502,0.2629,0.2766,0.2797,0.2825,0.2951,0.2988,0.2537,0.2538,0.2538,0,0.2242,0.2277,0.2263,0.2304,0.2327,0.2301,0.2351,0.2364,0.2379,0.2408,0.2377,0.2438,0.2426,0.2532,0.2575,0.2561,0.263,0.2547,0.2797,0.2824,0.2849,0.2971,0.3009,0.2548,0.2547,0.2546,0.2545,0,0.2314,0.2347,0.237,0.2409,0.2436,0.2473,0.2492,0.2524,0.2527,0.2545,0.263,0.2639,0.2681,0.2702,0.2679,0.285,0.2842,0.2792,0.2745,0.2898,0.3016,0.3053,0.2563,0.2559,0.2556,0.2554,0,0,0.2366,0.2411,0.2422,0.2452,0.2493,0.2521,0.2592,0.2658,0.2714,0.2751,0.2846,0.2904,0.2905,0.2915,0.2913,0.3038,0.3295,0.3008,0.301,0.3148,0.3619,0.3641,0.3682,0.3309,0.3315,0.332,0.3648,0,0.2432,0.2512,0.2526,0.2611,0.2654,0.2665,0.2735,0.279,0.2834,0.2918,0.2966,0.3035,0.299,0.3034,0.3159,0.3226,0.3393,0.321,0.3433,0.3439,0.3454,0.3726,0.3698,0.399,0.3683,0.3689,0.3693,0,0.251,0.2549,0.2635,0.2703,0.2726,0.2775,0.2874,0.2934,0.3039,0.3079,0.3172,0.3189,0.335,0.3287,0.3556,0.3448,0.3561,0.3629,0.3643,0.3608,0.353,0.3775,0.4067,0.3898,0.3749,0.3745,0.3741,0,0.2546,0.2632,0.2695,0.272,0.2796,0.2844,0.2889,0.2986,0.3045,0.3186,0.325,0.3408,0.3494,0.3661,0.378,0.3706,0.4076,0.3988,0.4131,0.4132,0.4119,0.4109,0.4279,0.4238,0.4237,0.4236,0.4235,0,0.261,0.2665,0.2712,0.2746,0.2825,0.2875,0.2969,0.3038,0.3149,0.3228,0.333,0.3426,0.3598,0.3787,0.3892,0.4145,0.4189,0.4222,0.4252,0.419,0.4183,0.4033,0.3933,0.4248,0.4246,0.4243,0.4241,0,0.2638,0.2674,0.2741,0.2815,0.2838,0.2891,0.2975,0.3039,0.3157,0.327,0.3322,0.3509,0.376,0.3944,0.423,0.4302,0.4423,0.4595,0.4506,0.4521,0.4454,0.4367,0.438,0.4262,0.4835,0.4838,0.4841,0,0.2656,0.2693,0.2761,0.278,0.2808,0.2876,0.2915,0.3025,0.3085,0.3295,0.3348,0.3631,0.3785,0.4234,0.4473,0.4771,0.455,0.4889,0.4738,0.4524,0.445,0.4156,0.403,0.4824,0.4826,0.4828,0.4829,0,0.2669,0.2689,0.2721,0.276,0.2796,0.2841,0.2905,0.2948,0.3079,0.3202,0.3375,0.3529,0.3975,0.4255,0.4659,0.4836,0.4653,0.4934,0.4762,0.4528,0.4175,0.4048,0.4504,0.4845,0.4844,0.4843,0.4842,0.4841,0.2648,0.2662,0.2685,0.2723,0.275,0.2777,0.2789,0.2872,0.2969,0.3118,0.3308,0.3537,0.3984,0.4549,0.4697,0.4937,0.4774,0.4873,0.4817,0.4558,0.4342,0.4829,0.5147,0.5148,0.5148,0.5148,0.5148,0,0.2597,0.2612,0.2642,0.2658,0.265,0.2704,0.275,0.2754,0.2821,0.3034,0.3197,0.3655,0.4019,0.4391,0.4836,0.4807,0.4588,0.471,0.4287,0.4194,0.473,0.4622,0.4779,0.4779,0.4779,0.4779,0.4779,0.4779,0.2563,0.2562,0.2584,0.2547,0.2553,0.2529,0.2537,0.2576,0.2696,0.291,0.315,0.3379,0.3877,0.4398,0.458,0.456,0.4184,0.4098,0.3942,0.4317,0.4323,0.4328,0.4201,0.4267,0.4267,0.326,0.3253,0.3248]},{"header":{"parameterUnit":"m.s-1","parameterCategory":2,"la1":30.2991,"la2":30.254,"lo1":-89.0895,"lo2":-89.0444,"dy":0.0017,"dx":0.0017,"nx":28,"ny":28,"refTime":"2024-07-17T09:00:00:Z","depth":"0","parameterNumber":3,"parameterNumberName":"V-component_of_CURRENTS"},"data":[0,0,0,0,0,0,0,0,0,0,0,0,0,0,0,0,0,0,0,0,0,0,0,0,0,0,0,0,0,0,0,0,0,0,0,0,0,0,0,0,0,0,0,0,0,0,0,0,0,0,0,0,0,0,0,0,0,0,-0.0622,-0.0624,0,-0.0768,-0.077,-0.0772,-0.089,-0.0891,-0.0892,-0.0893,-0.11,-0.1105,-0.1109,0,0,0,0,0,0,0,0,0,0,0,0,0,-0.0501,-0.0503,-0.0622,-0.0624,-0.0625,-0.0768,-0.077,-0.0773,-0.089,-0.0891,-0.0892,-0.0893,-0.1099,-0.1104,-0.111,0,0,0,0,0,0,0,0,0,0,0,0,0,-0.0594,-0.0503,-0.0622,-0.0699,-0.0707,-0.0767,-0.077,-0.0773,-0.089,-0.0891,-0.0893,-0.0894,-0.1097,-0.1104,-0.1111,-0.1127,0,0,-0.1132,-0.1135,0,0,0,0,0,0,0,0,-0.0589,-0.0599,-0.0686,-0.0693,-0.0702,-0.0809,-0.0803,-0.0893,-0.089,-0.0824,-0.0893,-0.0895,-0.1005,-0.102,-0.1049,-0.1137,-0.1146,-0.1133,-0.1137,-0.114,-0.1142,0,0,0,0,0,0,0,-0.0582,-0.0594,-0.0684,-0.0687,-0.0697,-0.0744,-0.0759,-0.0821,-0.0909,-0.083,-0.0838,-0.0848,-0.1011,-0.1041,-0.1054,-0.1149,-0.1133,-0.1139,-0.1143,-0.1146,-0.1245,-0.1243,0,0,0,0,0,0,-0.0553,-0.0587,-0.0679,-0.0688,-0.0644,-0.0745,-0.0761,-0.0777,-0.0908,-0.0927,-0.0847,-0.0853,-0.1029,-0.1046,-0.1062,-0.1043,-0.114,-0.1147,-0.1151,-0.1246,-0.1244,-0.1242,0,0,0,0,0,0,-0.055,-0.056,-0.0673,-0.0638,-0.0655,-0.0745,-0.0761,-0.0779,-0.0807,-0.0919,-0.0941,-0.0856,-0.1031,-0.1052,-0.1098,-0.1054,-0.115,-0.1156,-0.1248,-0.1246,-0.1243,-0.1035,0,0,0,0,0,0,-0.0546,-0.0558,-0.055,-0.0636,-0.0656,-0.0679,-0.076,-0.078,-0.0809,-0.0819,-0.0934,-0.0955,-0.1033,-0.1086,-0.1104,-0.1065,-0.1162,-0.125,-0.1247,-0.1244,-0.1044,-0.1026,-0.101,0,0,0,0,0,-0.0541,-0.0512,-0.0549,-0.0559,-0.0645,-0.0677,-0.0691,-0.0763,-0.0808,-0.0798,-0.088,-0.0952,-0.1081,-0.109,-0.1112,-0.1074,-0.1251,-0.1248,-0.1244,-0.1052,-0.103,-0.1011,0,0,0,0,0,0,-0.0443,-0.0524,-0.0566,-0.0561,-0.0605,-0.0695,-0.069,-0.0747,-0.0805,-0.0817,-0.0934,-0.0959,-0.0979,-0.1058,-0.1066,-0.1095,-0.1177,-0.1178,-0.1023,-0.1003,-0.0987,-0.0916,-0.1167,0,0,0,0,0,-0.0419,-0.0428,-0.0506,-0.0498,-0.0515,-0.0602,-0.0624,-0.0672,-0.0738,-0.0766,-0.0846,-0.0928,-0.0981,-0.1016,-0.1077,-0.1095,-0.1118,-0.1086,-0.1069,-0.1054,-0.1012,-0.102,-0.0998,-0.1231,-0.1231,-0.1231,0,0,-0.0378,-0.0422,-0.0427,-0.0478,-0.0523,-0.0525,-0.0618,-0.0633,-0.063,-0.0778,-0.0792,-0.0869,-0.0973,-0.0986,-0.1004,-0.1047,-0.0994,-0.105,-0.1036,-0.1002,-0.1013,-0.099,-0.097,-0.1228,-0.1229,-0.1229,0,0,-0.0297,-0.0338,-0.0323,-0.035,-0.0401,-0.0449,-0.0445,-0.0523,-0.055,-0.0574,-0.0673,-0.071,-0.0812,-0.0858,-0.0901,-0.0829,-0.0901,-0.0865,-0.0727,-0.0734,-0.0713,-0.0696,-0.0659,-0.064,-0.0861,-0.0861,-0.086,0,-0.0247,-0.0247,-0.0316,-0.0306,-0.0312,-0.0405,-0.0379,-0.0412,-0.0491,-0.0494,-0.0547,-0.0649,-0.0738,-0.0742,-0.0717,-0.0784,-0.0792,-0.0792,-0.0707,-0.069,-0.0676,-0.0643,-0.0625,-0.085,-0.0851,-0.0853,-0.0853,0,-0.017,-0.0164,-0.0146,-0.0173,-0.018,-0.0167,-0.0221,-0.0225,-0.0273,-0.0313,-0.032,-0.0424,-0.0483,-0.0518,-0.0597,-0.0544,-0.058,-0.0677,-0.0745,-0.0639,-0.0612,-0.0596,-0.0835,-0.0839,-0.0842,-0.0845,0,0,-0.0085,-0.0094,-0.0089,-0.0076,-0.011,-0.0106,-0.0077,-0.0079,-0.0052,-0.0108,-0.007,-0.0149,-0.0204,-0.0254,-0.0355,-0.0356,-0.0261,-0.0457,-0.0462,-0.0393,-0.0232,-0.0254,-0.0241,-0.0349,-0.0346,-0.0343,-0.0239,0,-0.001,0.0042,0.0017,0.0083,0.0105,0.0058,0.0096,0.0088,0.0066,0.0084,0.0016,0.0003,-0.0107,-0.013,-0.0139,-0.0248,-0.0216,-0.0277,-0.0367,-0.0368,-0.0381,-0.0223,-0.0204,-0.011,-0.0225,-0.0222,-0.022,0,0.0063,0.0087,0.016,0.0202,0.0211,0.0244,0.0288,0.0309,0.0316,0.0303,0.0296,0.0223,0.0222,0.01,0.0052,0.0016,-0.0061,-0.0135,-0.0136,-0.0213,-0.0361,-0.0246,-0.0079,-0.0348,-0.0198,-0.02,-0.0201,0,0.0138,0.019,0.0254,0.0264,0.0297,0.034,0.0362,0.038,0.0416,0.0445,0.0475,0.0442,0.0428,0.0342,0.0191,0.0127,0.0144,0.0014,-0.0053,-0.0056,-0.0082,-0.0092,-0.0163,0.0028,0.0028,0.0028,0.0028,0,0.0214,0.0269,0.0298,0.0331,0.0425,0.0425,0.0522,0.0537,0.0583,0.065,0.0593,0.0641,0.0485,0.0448,0.0301,0.0203,0.0232,0.0042,-0.0013,-0.0009,-0.0013,-0.0291,-0.0457,0.0032,0.0031,0.003,0.003,0,0.028,0.0296,0.0373,0.0431,0.0458,0.0525,0.0606,0.0671,0.0711,0.0801,0.0821,0.0815,0.0782,0.0638,0.0508,0.0352,0.0119,0.0191,0.0237,0.0185,-0.0156,-0.031,-0.0363,-0.0463,0.016,0.016,0.016,0,0.0318,0.0361,0.044,0.0487,0.0518,0.0608,0.0669,0.0725,0.0794,0.0904,0.0959,0.0978,0.1001,0.0847,0.0603,0.0424,0.0167,0.0281,0.0153,-0.0103,-0.0318,-0.0407,-0.0496,0.0218,0.0218,0.0219,0.0219,0,0.0386,0.0409,0.0462,0.0554,0.063,0.0722,0.0817,0.089,0.0969,0.1067,0.1188,0.1232,0.1117,0.0958,0.0705,0.0541,0.0101,0.0285,0.0003,-0.0255,-0.0337,-0.0486,0.009,0.0225,0.0224,0.0224,0.0223,0.0223,0.0425,0.0475,0.0535,0.0627,0.0713,0.0826,0.0917,0.1025,0.1163,0.1346,0.1371,0.1537,0.1274,0.0951,0.0637,0.0124,0.0118,-0.0063,-0.0211,-0.0263,-0.0411,0.0207,0.026,0.026,0.026,0.0259,0.0259,0,0.0464,0.0516,0.0602,0.0712,0.0813,0.0853,0.1008,0.1119,0.1294,0.1521,0.1665,0.176,0.1331,0.0895,0.0214,-0.0277,-0.0454,-0.0548,-0.0698,-0.0756,-0.0211,-0.0268,-0.0307,-0.0306,-0.0306,-0.0306,-0.0306,-0.0305,0.0484,0.0561,0.061,0.0773,0.0857,0.1013,0.1109,0.1288,0.1489,0.1845,0.2089,0.225,0.1967,0.051,-0.0517,-0.0776,-0.1179,-0.1227,-0.1429,-0.1132,-0.11,-0.1069,-0.1162,-0.1388,-0.1389,-0.1891,-0.1897,-0.1901]}],[{"header":{"parameterUnit":"m.s-1","parameterCategory":2,"la1":30.2991,"la2":30.254,"lo1":-89.0895,"lo2":-89.0444,"dy":0.0017,"dx":0.0017,"nx":28,"ny":28,"refTime":"2024-07-17T09:00:00:Z","depth":"2","parameterNumber":2,"parameterNumberName":"U-component_of_CURRENTS"},"data":[0,0,0,0,0,0,0,0,0,0,0,0,0,0,0,0,0,0,0,0,0,0,0,0,0,0,0,0,0,0,0,0,0,0,0,0,0,0,0,0,0,0,0,0,0,0,0,0,0,0,0,0,0,0,0,0,0,0,0.1293,0.1295,0,0.1422,0.1424,0.1425,0.1452,0.1452,0.1451,0.145,0.1513,0.1516,0.1518,0,0,0,0,0,0,0,0,0,0,0,0,0,0.1098,0.1101,0.1293,0.1295,0.1296,0.1422,0.1424,0.1425,0.1453,0.1451,0.145,0.1449,0.1512,0.1515,0.1518,0,0,0,0,0,0,0,0,0,0,0,0,0,0.12,0.1102,0.1293,0.1325,0.133,0.1422,0.1424,0.1426,0.1453,0.1451,0.145,0.1449,0.1511,0.1515,0.1519,0.1569,0,0,0.153,0.1532,0,0,0,0,0,0,0,0,0.1194,0.1207,0.1319,0.1323,0.1328,0.142,0.1378,0.1471,0.1453,0.1405,0.145,0.1448,0.1477,0.1484,0.1511,0.1572,0.1575,0.1531,0.1533,0.1535,0.1536,0,0,0,0,0,0,0,0.1187,0.1202,0.1344,0.1321,0.1327,0.1343,0.1356,0.1396,0.1446,0.141,0.1412,0.1428,0.1479,0.1508,0.1513,0.1576,0.1531,0.1534,0.1536,0.1538,0.1709,0.1712,0,0,0,0,0,0,0.1173,0.1195,0.1339,0.1347,0.1257,0.1348,0.1362,0.1392,0.1447,0.1455,0.1429,0.1429,0.1502,0.1508,0.1515,0.1582,0.1535,0.1538,0.154,0.1707,0.171,0.1712,0,0,0,0,0,0,0.1168,0.1185,0.1334,0.1273,0.1294,0.1352,0.1386,0.1395,0.1424,0.1462,0.1468,0.1447,0.1501,0.151,0.1568,0.1584,0.154,0.1543,0.1705,0.1708,0.1711,0.1713,0,0,0,0,0,0,0.1162,0.1183,0.1204,0.1273,0.1297,0.139,0.1387,0.1398,0.1436,0.1436,0.1481,0.1485,0.1501,0.1563,0.1572,0.1588,0.1546,0.1702,0.1706,0.171,0.171,0.1716,0.1721,0,0,0,0,0,0.1155,0.1187,0.1205,0.1223,0.1323,0.1391,0.1405,0.1441,0.1438,0.1459,0.1496,0.1484,0.1596,0.1568,0.1578,0.1596,0.17,0.1705,0.171,0.1707,0.1715,0.1721,0,0,0,0,0,0,0.1111,0.1195,0.1216,0.1271,0.1327,0.1396,0.1422,0.1445,0.1495,0.1492,0.1518,0.1527,0.1587,0.1601,0.157,0.1663,0.1644,0.1652,0.1639,0.1646,0.1652,0.1663,0.1549,0,0,0,0,0,0.1113,0.1161,0.1235,0.1279,0.1305,0.1364,0.1397,0.1423,0.1474,0.1494,0.1524,0.1565,0.162,0.1638,0.1686,0.1735,0.1787,0.1755,0.1761,0.1765,0.1785,0.1881,0.1897,0.1729,0.1729,0.1729,0,0,0.1107,0.116,0.1187,0.1273,0.1317,0.1371,0.138,0.1432,0.1477,0.1494,0.1554,0.159,0.1643,0.1703,0.1729,0.171,0.1845,0.1772,0.1774,0.1793,0.1888,0.1904,0.1919,0.1733,0.1732,0.1732,0,0,0.1118,0.1166,0.1208,0.126,0.1332,0.1374,0.1388,0.1458,0.1487,0.1554,0.1584,0.1641,0.1701,0.1754,0.1786,0.1858,0.1879,0.1856,0.1881,0.1973,0.1988,0.2001,0.2099,0.2121,0.1847,0.1848,0.1848,0,0.1102,0.1177,0.1228,0.1282,0.1328,0.1374,0.1426,0.1473,0.1551,0.1593,0.1569,0.1707,0.1735,0.184,0.1856,0.187,0.1923,0.1842,0.1979,0.1993,0.2006,0.2104,0.2128,0.1848,0.1848,0.1848,0.1848,0,0.115,0.1209,0.1236,0.1324,0.1376,0.1428,0.1498,0.1547,0.1575,0.1627,0.1724,0.1774,0.1861,0.1866,0.1878,0.1988,0.1998,0.1979,0.1954,0.2023,0.2122,0.2147,0.1849,0.1849,0.1849,0.1849,0,0,0.1115,0.1244,0.1254,0.1301,0.1404,0.1449,0.1531,0.1628,0.1689,0.1743,0.1836,0.1912,0.1938,0.198,0.2002,0.2058,0.2189,0.2047,0.2051,0.2131,0.2403,0.228,0.2296,0.2182,0.2186,0.2189,0.2437,0,0.1136,0.1234,0.1301,0.1389,0.1443,0.152,0.1597,0.1687,0.1752,0.1849,0.1917,0.201,0.1982,0.2024,0.2083,0.2176,0.2254,0.2125,0.2337,0.2344,0.2214,0.2319,0.2082,0.227,0.2461,0.2466,0.2469,0,0.1159,0.1229,0.1314,0.1436,0.1466,0.1523,0.1653,0.1731,0.1877,0.1934,0.2036,0.2095,0.2228,0.217,0.2373,0.2288,0.2357,0.2404,0.2414,0.2317,0.2267,0.2233,0.2309,0.2511,0.2507,0.2504,0.2501,0,0.1105,0.1234,0.1299,0.1341,0.1482,0.1535,0.1615,0.1753,0.1835,0.2002,0.2079,0.2228,0.2324,0.2429,0.2529,0.2469,0.2733,0.2672,0.2639,0.2632,0.2483,0.2454,0.2827,0.2826,0.2826,0.2825,0.2824,0,0.11,0.1151,0.1276,0.1311,0.1394,0.1506,0.1608,0.1711,0.1873,0.1987,0.2119,0.2237,0.2388,0.2541,0.2605,0.2712,0.2818,0.2682,0.2695,0.2476,0.2445,0.2682,0.2662,0.2834,0.2832,0.2831,0.2829,0,0.1024,0.1111,0.1183,0.1322,0.1366,0.1421,0.159,0.167,0.1835,0.1993,0.2059,0.2294,0.2507,0.2649,0.2856,0.2811,0.2922,0.2932,0.2664,0.2636,0.2745,0.2723,0.2933,0.2931,0.2929,0.2928,0.2926,0,0.0994,0.1024,0.1154,0.1195,0.1254,0.1359,0.1438,0.1623,0.1719,0.2018,0.2093,0.2364,0.2515,0.2777,0.2799,0.292,0.2988,0.2723,0.2542,0.2769,0.2761,0.2741,0.2722,0.2377,0.2371,0.2367,0.2363,0,0.0928,0.0968,0.1028,0.1114,0.1187,0.128,0.1412,0.1482,0.1717,0.187,0.2104,0.2256,0.2506,0.2527,0.2653,0.2668,0.267,0.2625,0.2999,0.2343,0.2252,0.224,0.2239,0.2322,0.2326,0.2329,0.2331,0.2333,0.0864,0.0885,0.0964,0.1039,0.1114,0.1197,0.1255,0.1406,0.1558,0.178,0.1965,0.2125,0.2214,0.2286,0.2314,0.2336,0.247,0.2343,0.2356,0.2374,0.2221,0.2127,0.2148,0.2151,0.2154,0.2156,0.2158,0,0.0798,0.0846,0.0898,0.0989,0.1031,0.1113,0.1237,0.1289,0.1427,0.1642,0.1803,0.1703,0.1771,0.1943,0.1888,0.188,0.1851,0.1842,0.1784,0.1824,0.186,0.1679,0.1465,0.1463,0.1462,0.1461,0,0,0.0771,0.08,0.0839,0.0891,0.0953,0.1006,0.106,0.1147,0.1279,0.137,0.1457,0.1624,0.1789,0.1557,0.1564,0.1531,0.1669,0.1481,0.2025,0.1992,0.2027,0.2127,0.1891,0,0,0,0,0]},{"header":{"parameterUnit":"m.s-1","parameterCategory":2,"la1":30.2991,"la2":30.254,"lo1":-89.0895,"lo2":-89.0444,"dy":0.0017,"dx":0.0017,"nx":28,"ny":28,"refTime":"2024-07-17T09:00:00:Z","depth":"2","parameterNumber":3,"parameterNumberName":"V-component_of_CURRENTS"},"data":[0,0,0,0,0,0,0,0,0,0,0,0,0,0,0,0,0,0,0,0,0,0,0,0,0,0,0,0,0,0,0,0,0,0,0,0,0,0,0,0,0,0,0,0,0,0,0,0,0,0,0,0,0,0,0,0,0,0,0.0032,0.0032,0,0.0012,0.0012,0.0011,-0.0037,-0.0037,-0.0038,-0.0039,-0.0123,-0.0125,-0.0126,0,0,0,0,0,0,0,0,0,0,0,0,0,-0.0056,-0.0054,0.0032,0.0032,0.0032,0.0012,0.0012,0.0011,-0.0037,-0.0037,-0.0038,-0.0039,-0.0123,-0.0125,-0.0126,0,0,0,0,0,0,0,0,0,0,0,0,0,-0.0043,-0.0053,0.0032,0.0008,0.0005,0.0012,0.0012,0.0011,-0.0036,-0.0037,-0.0039,-0.004,-0.0122,-0.0124,-0.0127,-0.0118,0,0,-0.0134,-0.0135,0,0,0,0,0,0,0,0,-0.0044,-0.004,0.0011,0.0009,0.0007,-0.0009,-0.005,-0.0035,-0.0036,-0.0023,-0.0039,-0.004,-0.0088,-0.0093,-0.0098,-0.0122,-0.0126,-0.0134,-0.0135,-0.0136,-0.0137,0,0,0,0,0,0,0,-0.0045,-0.004,0.0021,0.0011,0.0009,-0.0031,-0.003,-0.0048,-0.0053,-0.0025,-0.0027,-0.0025,-0.0091,-0.0095,-0.01,-0.0127,-0.0134,-0.0136,-0.0137,-0.0138,-0.0188,-0.0188,0,0,0,0,0,0,-0.003,-0.004,0.0022,0.0021,-0.0019,-0.0028,-0.0027,-0.0005,-0.0051,-0.0058,-0.0024,-0.0027,-0.0091,-0.0097,-0.0103,-0.0116,-0.0136,-0.0139,-0.014,-0.0188,-0.0188,-0.0188,0,0,0,0,0,0,-0.0032,-0.0024,0.0023,-0.001,-0.0006,-0.0024,0.0,-0.0004,-0.0012,-0.0049,-0.0058,-0.0026,-0.0092,-0.01,-0.0122,-0.0119,-0.014,-0.0142,-0.0188,-0.0188,-0.0188,-0.0129,0,0,0,0,0,0,-0.0034,-0.0024,-0.0005,-0.0008,-0.0004,0.0036,0.0002,-0.0004,-0.0007,-0.0011,-0.0054,-0.0063,-0.0093,-0.0118,-0.0124,-0.0123,-0.0144,-0.0188,-0.0188,-0.0188,-0.0131,-0.0127,-0.0123,0,0,0,0,0,-0.0037,0.0005,-0.0004,0.0003,0.0024,0.0037,0.0036,0.0015,-0.0006,0.0002,-0.0036,-0.0062,-0.0122,-0.0119,-0.0127,-0.0126,-0.0188,-0.0188,-0.0188,-0.0133,-0.0128,-0.0124,0,0,0,0,0,0,-0.0013,0.0004,-0.0006,0.0042,0.0039,0.003,0.0038,0.0021,-0.0,-0.0011,-0.0055,-0.0066,-0.0084,-0.0112,-0.0108,-0.0141,-0.0161,-0.0162,-0.0117,-0.0113,-0.0109,-0.0098,-0.0145,0,0,0,0,0,0.0,0.0029,0.0032,0.0068,0.0069,0.0051,0.0052,0.0039,0.0022,0.0011,-0.0022,-0.006,-0.0087,-0.0105,-0.013,-0.0143,-0.0183,-0.015,-0.0146,-0.0143,-0.014,-0.021,-0.0212,-0.0187,-0.0187,-0.0187,0,0,0.0021,0.0032,0.005,0.0072,0.0066,0.008,0.0049,0.0058,0.006,0.0006,-0.0007,-0.0043,-0.0086,-0.0104,-0.0116,-0.0128,-0.0168,-0.0143,-0.0139,-0.0138,-0.021,-0.0213,-0.0215,-0.0187,-0.0187,-0.0187,0,0,0.0069,0.0084,0.0115,0.0116,0.0116,0.0106,0.0111,0.0099,0.0083,0.0072,0.0028,-0.0007,-0.0043,-0.0078,-0.0099,-0.0089,-0.0142,-0.0099,-0.0075,-0.0143,-0.0145,-0.0148,-0.0185,-0.0192,-0.0102,-0.0102,-0.0102,0,0.0089,0.0132,0.0125,0.0147,0.0152,0.0121,0.0145,0.0132,0.011,0.0096,0.0074,0.0005,-0.0032,-0.0062,-0.0063,-0.008,-0.012,-0.0086,-0.0138,-0.0142,-0.0146,-0.0183,-0.0192,-0.0099,-0.0099,-0.0099,-0.01,0,0.0151,0.0179,0.0198,0.0213,0.0217,0.0236,0.0216,0.0207,0.0179,0.0154,0.0118,0.0062,0.0017,-0.0001,-0.0029,-0.0072,-0.009,-0.0121,-0.0147,-0.0145,-0.0184,-0.0194,-0.0095,-0.0096,-0.0097,-0.0097,0,0,0.0209,0.0238,0.0241,0.0256,0.0252,0.0267,0.0265,0.0257,0.0256,0.0207,0.0194,0.0131,0.0087,0.0059,0.0012,-0.0048,-0.0107,-0.0094,-0.0099,-0.0126,-0.0242,-0.0263,-0.0276,-0.0155,-0.0157,-0.0158,-0.0252,0,0.0254,0.031,0.0307,0.035,0.0376,0.0345,0.0351,0.0332,0.0301,0.028,0.0203,0.0175,0.0114,0.0093,0.002,-0.0069,-0.0133,-0.0078,-0.0245,-0.0249,-0.0265,-0.0288,-0.0271,-0.0355,-0.0262,-0.0263,-0.0265,0,0.0307,0.0338,0.0392,0.0419,0.0426,0.044,0.0438,0.0441,0.0395,0.0364,0.0305,0.0251,0.017,0.0114,-0.0055,-0.0019,-0.0128,-0.0206,-0.0212,-0.026,-0.0289,-0.0347,-0.0376,-0.0281,-0.028,-0.0279,-0.0278,0,0.0345,0.0394,0.0439,0.0449,0.0473,0.0483,0.0489,0.0463,0.0479,0.0418,0.0417,0.0299,0.0262,0.0098,-0.005,-0.0066,-0.0231,-0.0278,-0.0398,-0.0399,-0.0431,-0.0433,-0.0414,-0.0414,-0.0414,-0.0414,-0.0413,0,0.0396,0.043,0.0462,0.0488,0.0542,0.0532,0.0575,0.0555,0.0548,0.0581,0.0465,0.0469,0.0252,0.0145,-0.0028,-0.0226,-0.0222,-0.0397,-0.0435,-0.0408,-0.0406,-0.0382,-0.0377,-0.0417,-0.0416,-0.0416,-0.0415,0,0.0433,0.0452,0.0511,0.0548,0.0564,0.0602,0.0653,0.0686,0.0658,0.0699,0.0688,0.0593,0.0452,0.0247,0.0007,-0.0174,-0.0373,-0.0446,-0.0379,-0.0409,-0.0505,-0.0495,-0.0615,-0.0616,-0.0618,-0.0619,-0.062,0,0.0462,0.0496,0.056,0.0603,0.0624,0.0681,0.0727,0.0735,0.0783,0.0791,0.0824,0.0715,0.0642,0.0289,-0.0034,-0.0348,-0.0359,-0.0537,-0.0585,-0.0506,-0.053,-0.0519,-0.0508,-0.0596,-0.0596,-0.0597,-0.0598,0,0.0519,0.0534,0.0583,0.067,0.0733,0.0819,0.0888,0.0941,0.0967,0.0993,0.1029,0.0973,0.0652,0.0319,-0.0109,-0.0307,-0.0494,-0.0562,-0.0513,-0.0542,-0.0495,-0.0516,-0.0505,-0.0603,-0.0602,-0.0602,-0.0602,-0.0602,0.056,0.0606,0.0667,0.0751,0.0828,0.094,0.1025,0.1098,0.1182,0.1199,0.1131,0.1,0.0648,0.0058,-0.0228,-0.0518,-0.054,-0.0678,-0.0674,-0.0669,-0.0645,-0.0603,-0.0725,-0.0725,-0.0725,-0.0725,-0.0725,0,0.0612,0.0664,0.0747,0.0858,0.0954,0.0993,0.1127,0.121,0.1317,0.126,0.1213,0.078,0.0407,0.0091,-0.0375,-0.0681,-0.0672,-0.0724,-0.067,-0.0665,-0.066,-0.0633,-0.0711,-0.0711,-0.0711,-0.0712,0,0,0.0648,0.0727,0.0769,0.094,0.103,0.1188,0.1276,0.138,0.1386,0.1268,0.1117,0.0847,0.0453,0.0095,-0.0268,-0.0468,-0.0477,-0.0489,-0.0481,-0.0368,-0.0358,-0.0629,-0.058,0,0,0,0,0]}],[{"header":{"parameterUnit":"m.s-1","parameterCategory":2,"la1":30.2991,"la2":30.254,"lo1":-89.0895,"lo2":-89.0444,"dy":0.0017,"dx":0.0017,"nx":28,"ny":28,"refTime":"2024-07-17T09:00:00:Z","depth":"4","parameterNumber":2,"parameterNumberName":"U-component_of_CURRENTS"},"data":[0,0,0,0,0,0,0,0,0,0,0,0,0,0,0,0,0,0,0,0,0,0,0,0,0,0,0,0,0,0,0,0,0,0,0,0,0,0,0,0,0,0,0,0,0,0,0,0,0,0,0,0,0,0,0,0,0,0,0.066,0.0661,0,0.0738,0.0738,0.0739,0.0805,0.0806,0.0806,0.0807,0.0874,0.0875,0.0876,0,0,0,0,0,0,0,0,0,0,0,0,0,0.0571,0.0572,0.066,0.0661,0.0662,0.0738,0.0738,0.0739,0.0805,0.0806,0.0807,0.0808,0.0874,0.0875,0.0876,0,0,0,0,0,0,0,0,0,0,0,0,0,0.0623,0.0572,0.0659,0.0705,0.071,0.0737,0.0739,0.074,0.0804,0.0806,0.0807,0.0808,0.0873,0.0875,0.0876,0.0859,0,0,0.0881,0.0881,0,0,0,0,0,0,0,0,0.062,0.0626,0.0697,0.0702,0.0707,0.0764,0.0732,0.078,0.0804,0.0767,0.0807,0.0809,0.0836,0.0841,0.0851,0.0862,0.0865,0.0881,0.0882,0.0882,0.0883,0,0,0,0,0,0,0,0.0617,0.0624,0.0689,0.0698,0.0704,0.0723,0.0731,0.0741,0.0792,0.077,0.0775,0.0786,0.0839,0.0849,0.0853,0.0866,0.0881,0.0882,0.0883,0.0883,0.0936,0.0936,0,0,0,0,0,0,0.0609,0.062,0.0687,0.0691,0.0668,0.0723,0.0733,0.0743,0.0792,0.0801,0.0785,0.0789,0.0846,0.0851,0.0855,0.0911,0.0882,0.0884,0.0884,0.0935,0.0936,0.0937,0,0,0,0,0,0,0.0607,0.0614,0.0683,0.0659,0.0669,0.0723,0.0735,0.0744,0.0784,0.0804,0.0813,0.0818,0.0847,0.0853,0.0896,0.0911,0.0884,0.0886,0.0935,0.0936,0.0936,0.0975,0,0,0,0,0,0,0.0604,0.0612,0.063,0.0658,0.067,0.0719,0.0734,0.0745,0.0787,0.0794,0.0835,0.0841,0.0849,0.0894,0.0898,0.0913,0.0887,0.0934,0.0935,0.0936,0.0973,0.0977,0.098,0,0,0,0,0,0.06,0.061,0.063,0.0639,0.0688,0.0719,0.0728,0.0769,0.0788,0.0809,0.0842,0.0841,0.0902,0.0896,0.09,0.0916,0.0934,0.0935,0.0936,0.0971,0.0976,0.098,0,0,0,0,0,0,0.058,0.0618,0.0641,0.0664,0.07,0.0732,0.0755,0.0781,0.0823,0.0837,0.0855,0.0864,0.0901,0.0903,0.0896,0.0932,0.0914,0.0916,0.0939,0.0944,0.0948,0.0952,0.0888,0,0,0,0,0,0.0583,0.0605,0.0643,0.0666,0.0683,0.0724,0.0747,0.0776,0.0811,0.0832,0.0859,0.0884,0.0902,0.0922,0.0934,0.0961,0.0954,0.097,0.0973,0.0976,0.0982,0.0984,0.0988,0.094,0.094,0.094,0,0,0.0582,0.0608,0.0622,0.0665,0.0695,0.0722,0.0742,0.0783,0.0811,0.083,0.088,0.0898,0.0911,0.0942,0.0957,0.0952,0.0987,0.0978,0.0981,0.0984,0.0985,0.099,0.0994,0.0941,0.0941,0.0941,0,0,0.0585,0.0615,0.0635,0.0665,0.0717,0.0737,0.0754,0.08,0.0831,0.0877,0.0893,0.0919,0.0959,0.0965,0.0973,0.1,0.1002,0.1013,0.1043,0.1045,0.1049,0.1053,0.1053,0.1057,0.102,0.102,0.102,0,0.0585,0.0617,0.0647,0.0675,0.0702,0.0745,0.0773,0.0802,0.086,0.0884,0.09,0.0956,0.0961,0.0992,0.1009,0.1006,0.1021,0.1028,0.1051,0.1054,0.1057,0.1056,0.1059,0.1022,0.1022,0.1022,0.1021,0,0.0602,0.0636,0.0649,0.0697,0.0727,0.076,0.08,0.0838,0.0878,0.0907,0.0959,0.0978,0.1014,0.1015,0.1028,0.1056,0.1064,0.1051,0.1041,0.1064,0.1062,0.1064,0.1025,0.1024,0.1024,0.1023,0,0,0.058,0.0648,0.0656,0.0688,0.0745,0.0771,0.0813,0.0861,0.0896,0.0948,0.0991,0.1023,0.1049,0.106,0.1075,0.1084,0.1109,0.1096,0.1095,0.1098,0.1135,0.1124,0.1125,0.1121,0.1121,0.1122,0.1127,0,0.0591,0.0641,0.0673,0.0724,0.0754,0.08,0.0835,0.0885,0.0929,0.0976,0.1005,0.1053,0.1062,0.1098,0.1107,0.1112,0.112,0.111,0.111,0.111,0.1098,0.1128,0.1124,0.1129,0.1129,0.1129,0.113,0,0.0597,0.0634,0.0683,0.0749,0.0766,0.08,0.0867,0.0909,0.0971,0.1011,0.1064,0.1097,0.1136,0.1132,0.1155,0.1165,0.1159,0.1152,0.1151,0.1129,0.1103,0.1099,0.1134,0.1134,0.1133,0.1133,0.1133,0,0.0571,0.064,0.0681,0.0705,0.0779,0.0813,0.0859,0.0922,0.0964,0.1045,0.1085,0.1136,0.1176,0.1181,0.1194,0.1187,0.1208,0.1178,0.1155,0.1154,0.1144,0.1141,0.1179,0.1179,0.1179,0.1179,0.1179,0,0.0564,0.0598,0.0677,0.07,0.0752,0.0813,0.0872,0.0924,0.0998,0.1046,0.1113,0.1155,0.1198,0.1222,0.1211,0.1207,0.1221,0.1169,0.1158,0.116,0.1158,0.1146,0.1142,0.118,0.118,0.118,0.1179,0,0.0527,0.0579,0.0627,0.0711,0.0741,0.0782,0.0879,0.0915,0.1001,0.1065,0.1102,0.1184,0.123,0.1253,0.1261,0.123,0.1216,0.1206,0.1224,0.1213,0.115,0.1148,0.1166,0.1166,0.1166,0.1166,0.1165,0,0.0513,0.0535,0.0622,0.0653,0.0695,0.0767,0.0809,0.0907,0.0948,0.1072,0.1091,0.1181,0.1227,0.1221,0.1252,0.1243,0.1227,0.1213,0.1167,0.1163,0.1151,0.115,0.1148,0.1165,0.1165,0.1165,0.1165,0,0.0478,0.0511,0.0548,0.0612,0.0664,0.0716,0.0791,0.0817,0.093,0.101,0.1073,0.1119,0.1172,0.1196,0.1221,0.1201,0.1218,0.121,0.1209,0.1165,0.1162,0.115,0.1148,0.1164,0.1164,0.1164,0.1164,0,0.0446,0.0456,0.0509,0.0561,0.0622,0.0659,0.0704,0.0768,0.0826,0.0966,0.0983,0.1076,0.1156,0.1176,0.1185,0.1193,0.1163,0.1114,0.1117,0.1119,0.1107,0.1096,0.1077,0,0,0,0,0,0.0413,0.0421,0.0459,0.0511,0.0569,0.0607,0.0688,0.0735,0.0841,0.0864,0.0929,0.098,0.1043,0.1086,0.1082,0.1157,0.1158,0.115,0.1099,0.1159,0.116,0.1154,0,0,0,0,0,0,0.0388,0.0416,0.0434,0.0464,0.0492,0.0546,0.0595,0.0663,0.0685,0.0799,0.0829,0.0928,0.0986,0.1029,0.1062,0.1078,0.1031,0.1214,0.1212,0.1159,0.116,0.1161,0.1154,0,0,0,0,0]},{"header":{"parameterUnit":"m.s-1","parameterCategory":2,"la1":30.2991,"la2":30.254,"lo1":-89.0895,"lo2":-89.0444,"dy":0.0017,"dx":0.0017,"nx":28,"ny":28,"refTime":"2024-07-17T09:00:00:Z","depth":"4","parameterNumber":3,"parameterNumberName":"V-component_of_CURRENTS"},"data":[0,0,0,0,0,0,0,0,0,0,0,0,0,0,0,0,0,0,0,0,0,0,0,0,0,0,0,0,0,0,0,0,0,0,0,0,0,0,0,0,0,0,0,0,0,0,0,0,0,0,0,0,0,0,0,0,0,0,-0.008,-0.0081,0,-0.0151,-0.0151,-0.0152,-0.0181,-0.018,-0.018,-0.018,-0.0239,-0.0241,-0.0242,0,0,0,0,0,0,0,0,0,0,0,0,0,0.0007,0.0006,-0.008,-0.0081,-0.0082,-0.015,-0.0151,-0.0152,-0.0181,-0.018,-0.018,-0.018,-0.0238,-0.024,-0.0242,0,0,0,0,0,0,0,0,0,0,0,0,0,-0.0044,0.0005,-0.008,-0.0105,-0.0107,-0.015,-0.0151,-0.0153,-0.0181,-0.018,-0.018,-0.018,-0.0238,-0.024,-0.0243,-0.0263,0,0,-0.0251,-0.0252,0,0,0,0,0,0,0,0,-0.0041,-0.0047,-0.01,-0.0103,-0.0106,-0.0157,-0.0142,-0.0189,-0.0181,-0.0153,-0.018,-0.018,-0.0211,-0.0215,-0.0229,-0.0266,-0.0268,-0.0251,-0.0252,-0.0253,-0.0254,0,0,0,0,0,0,0,-0.0037,-0.0044,-0.0108,-0.0101,-0.0105,-0.012,-0.0126,-0.0151,-0.0182,-0.0155,-0.0157,-0.0166,-0.0212,-0.0227,-0.0231,-0.0269,-0.0251,-0.0253,-0.0255,-0.0256,-0.036,-0.0362,0,0,0,0,0,0,-0.0028,-0.0041,-0.0106,-0.011,-0.0072,-0.0121,-0.0129,-0.0141,-0.0182,-0.0188,-0.0166,-0.0167,-0.0222,-0.0228,-0.0233,-0.0297,-0.0253,-0.0256,-0.0257,-0.0359,-0.0361,-0.0362,0,0,0,0,0,0,-0.0026,-0.0033,-0.0103,-0.0077,-0.0087,-0.0123,-0.0136,-0.0142,-0.0167,-0.019,-0.0196,-0.0185,-0.0222,-0.0229,-0.0273,-0.0298,-0.0257,-0.0259,-0.0358,-0.036,-0.0361,-0.0402,0,0,0,0,0,0,-0.0023,-0.0032,-0.0046,-0.0076,-0.0088,-0.0142,-0.0137,-0.0144,-0.0172,-0.0174,-0.0209,-0.0213,-0.0223,-0.0269,-0.0276,-0.0301,-0.0261,-0.0356,-0.0359,-0.0361,-0.0399,-0.0405,-0.041,0,0,0,0,0,-0.002,-0.0043,-0.0046,-0.0055,-0.0103,-0.0143,-0.0151,-0.0175,-0.0173,-0.0194,-0.0217,-0.0213,-0.0288,-0.0273,-0.028,-0.0307,-0.0355,-0.0358,-0.0361,-0.0397,-0.0404,-0.041,0,0,0,0,0,0,-0.0023,-0.0049,-0.0053,-0.0086,-0.0115,-0.0148,-0.0173,-0.0182,-0.0217,-0.0221,-0.0234,-0.0241,-0.0288,-0.0293,-0.0275,-0.0343,-0.0319,-0.0323,-0.0344,-0.0351,-0.0357,-0.0346,-0.0263,0,0,0,0,0,-0.0026,-0.0046,-0.0074,-0.0103,-0.0117,-0.0144,-0.0165,-0.0181,-0.0211,-0.0227,-0.0248,-0.0273,-0.0305,-0.0323,-0.035,-0.039,-0.0386,-0.041,-0.0415,-0.042,-0.0417,-0.0445,-0.0453,-0.0371,-0.0371,-0.0371,0,0,-0.0036,-0.0054,-0.0066,-0.0104,-0.0128,-0.015,-0.0157,-0.0195,-0.0214,-0.0227,-0.0267,-0.0296,-0.032,-0.0367,-0.0387,-0.0375,-0.0441,-0.0424,-0.0428,-0.0422,-0.0449,-0.0457,-0.0464,-0.0373,-0.0373,-0.0373,0,0,-0.0059,-0.0081,-0.0098,-0.012,-0.0156,-0.0172,-0.0183,-0.022,-0.0241,-0.0284,-0.0298,-0.034,-0.0386,-0.0409,-0.0425,-0.0476,-0.047,-0.0489,-0.0511,-0.0539,-0.0546,-0.0552,-0.0552,-0.0558,-0.0491,-0.0492,-0.0492,0,-0.0068,-0.0088,-0.0114,-0.0133,-0.0147,-0.0178,-0.0194,-0.0225,-0.0273,-0.0289,-0.0301,-0.0378,-0.0402,-0.0451,-0.0478,-0.0487,-0.0497,-0.0484,-0.0546,-0.0552,-0.0557,-0.0556,-0.0562,-0.0494,-0.0494,-0.0493,-0.0493,0,-0.0094,-0.0111,-0.0127,-0.015,-0.0174,-0.02,-0.0231,-0.0261,-0.0287,-0.0312,-0.0373,-0.0421,-0.0459,-0.0485,-0.0503,-0.0557,-0.0549,-0.055,-0.0526,-0.0567,-0.0564,-0.0569,-0.0497,-0.0496,-0.0496,-0.0495,0,0,-0.0103,-0.0134,-0.0138,-0.0138,-0.018,-0.0197,-0.0234,-0.0269,-0.0283,-0.0352,-0.0377,-0.0461,-0.0487,-0.0508,-0.0541,-0.0581,-0.0633,-0.0591,-0.0592,-0.0586,-0.0686,-0.0648,-0.065,-0.0655,-0.0656,-0.0657,-0.0666,0,-0.011,-0.0127,-0.0148,-0.0164,-0.017,-0.0202,-0.0226,-0.0265,-0.0303,-0.034,-0.0407,-0.0448,-0.0495,-0.052,-0.0574,-0.0614,-0.065,-0.063,-0.0651,-0.0651,-0.0609,-0.0656,-0.0661,-0.067,-0.0671,-0.0672,-0.0672,0,-0.012,-0.0125,-0.0134,-0.0145,-0.0152,-0.0168,-0.0195,-0.0223,-0.0283,-0.0315,-0.038,-0.0426,-0.0502,-0.0531,-0.0628,-0.0617,-0.0658,-0.0691,-0.0692,-0.0644,-0.0623,-0.0623,-0.0681,-0.0681,-0.068,-0.0679,-0.0679,0,-0.0091,-0.0112,-0.011,-0.0117,-0.0142,-0.0151,-0.0168,-0.0215,-0.0228,-0.0296,-0.0312,-0.0411,-0.0448,-0.0533,-0.0617,-0.0627,-0.0708,-0.0717,-0.0717,-0.0713,-0.0723,-0.0717,-0.0781,-0.0781,-0.0781,-0.0781,-0.0781,0,-0.0081,-0.0081,-0.0093,-0.0092,-0.0086,-0.0118,-0.0123,-0.0155,-0.0193,-0.02,-0.0294,-0.0319,-0.0456,-0.0522,-0.0604,-0.0672,-0.0694,-0.0725,-0.0722,-0.0739,-0.0735,-0.0726,-0.072,-0.0781,-0.0781,-0.0781,-0.0781,0,-0.0058,-0.0067,-0.006,-0.0072,-0.0072,-0.0069,-0.008,-0.0085,-0.0125,-0.0135,-0.0154,-0.025,-0.034,-0.0458,-0.0578,-0.063,-0.0707,-0.0723,-0.0715,-0.071,-0.0694,-0.069,-0.0722,-0.0721,-0.072,-0.0719,-0.0719,0,-0.0049,-0.0043,-0.0034,-0.0021,-0.0027,-0.0023,-0.0019,-0.0051,-0.0048,-0.0086,-0.0084,-0.0174,-0.0248,-0.0373,-0.0514,-0.0653,-0.0676,-0.07,-0.0729,-0.0699,-0.0693,-0.069,-0.0687,-0.0717,-0.0717,-0.0717,-0.0717,0,-0.0031,-0.0028,-0.0018,0.0014,0.0027,0.0043,0.0049,0.0063,0.0035,0.0008,-0.0012,-0.0101,-0.0195,-0.034,-0.0449,-0.0554,-0.0681,-0.0691,-0.0694,-0.0722,-0.0693,-0.0687,-0.0685,-0.0714,-0.0714,-0.0714,-0.0714,0,-0.0017,-0.0003,0.0016,0.0046,0.0069,0.0096,0.0097,0.0105,0.0104,0.0072,0.007,-0.0052,-0.0132,-0.0286,-0.0389,-0.0491,-0.0522,-0.0543,-0.0555,-0.056,-0.0523,-0.0463,-0.0413,0,0,0,0,0,-0.0005,0.0016,0.0046,0.0079,0.0106,0.0118,0.0137,0.0134,0.0126,0.0132,0.0105,0.0019,-0.0138,-0.0221,-0.0315,-0.0393,-0.0556,-0.0505,-0.0589,-0.0696,-0.07,-0.0683,0,0,0,0,0,0,0.0001,0.0029,0.005,0.0102,0.013,0.0157,0.017,0.0165,0.0168,0.0149,0.0063,0.0019,-0.0148,-0.008,-0.0309,-0.0345,-0.0403,-0.059,-0.0591,-0.0694,-0.0698,-0.07,-0.0684,0,0,0,0,0]}]]